Карточка аэропорта UASK

Внимание!
Информация на этой странице в стадии наполнения.
Если вы не увидели какой-то информации, или заметили неточность - пожалуйста сообщите нам!
Спасибо!
Команда RU-STAFF
Название аэропортаУсть-Каменогорск
Название аэропорта (англ.)Ust-Kamenogorsk
Превышение942 ft. (287.1 m.)
Координаты50°2.2020000000002', 82°29.598'
Высота перехода10000ft
Эшелон переходаFL120, QNH<733:FL130
Коды ответчика7250-7253, 0650-0657
Зона ОрВДАлматы РПИ (UAAA)
Данные METARUASK 220746Z 03002MPS 310V110 9999 VCTS BKN033CB BKN083 24/18 Q1007 NOSIG RMK QFE730/0973
Проноз погоды (TAF)UASK 220735Z 2207/2215 29004G09MPS 9999 BKN033CB BKN100 TEMPO 2207/2212 VRB18MPS 1000 TSRA SQ SCT004 BKN017CB
NOTAMshow/hide NOTAM
AWOS   TABLE

Информация о ВПП

ВПП Длина ВПП (м.) Покрытие Курс ВПП Частота ILS
302514Асфальтобетон304109.7
122514Асфальтобетон124111.7

Диспетчерские позиции

Позывной Наименование органа УВД Частота
UASK_TWRУсть-Каменогорск-Вышка130.1



Спутниковое изображение